Tracking 18628 objects as of 24-April-2017
HD Live streaming from Space Station
objects crossing your sky now

OSCAR 6

Track OSCAR 6 now!
10-day predictions
OSCAR 6 is classified as:


NORAD ID: 6236
Int'l Code: 1972-082B
Perigee: 1,455.0 km
Apogee: 1,462.1 km
Inclination: 101.7 °
Period: 114.9 minutes
Semi major axis: 7829 km
RCS: 0.279 m2 (medium)
Launch date: October 15, 1972
Source: United States (US)
Launch site: AIR FORCE WESTERN TEST RANGE (AFWTR)
Uplink (MHz): 145.900-146.000
Downlink (MHz): 29.450- 29.550
Beacon (MHz):
Mode: SSB CW
Call sign:
Status: Inactive

Your satellite tracking list
Your tracking list is empty





NASA's NSSDC Master Catalog

Two Line Element Set (TLE):
1  6236U 72082B   17113.88907229 -.00000027 +00000-0 +11106-3 0  9996
2  6236 101.7047 079.8615 0004545 066.1392 350.6063 12.53136396036427
Source of the keplerian elements: AFSPC